Location: Sternwarte auf dem Internationalen Platz Vogelsang IP
(50.5721°N, 6.4398°E)
Time: 04:48:29
(UTC+01:00)

Transit 2A Rocket - Pass Details

Date: 16 December 2025
Orbit: 581 x 903 km, 66.7° (Epoch: 13 January)

Event Time Altitude Azimuth Distance (km) Brightness Sun altitude
Rises 14:31:17 0° 319° (NW) 3,528 8.2 11.4°
Reaches altitude 10° 14:34:14 10° 331° (NNW) 2,592 7.5 11.2°
Maximum altitude 14:39:19 27° 28° (NNE) 1,665 6.3 10.8°
Drops below altitude 10° 14:44:16 10° 85° (E) 2,530 7.4 10.4°
Sets 14:47:07 0° 98° (E) 3,428 8.1 10.1°
